| time (UTC) | temp F | wind direction | speed knots | gust knots | rain 1hr in | rain 24hr in | rain mn in | humidity % | barometer mb |
| 20260508193028 | 47 | 356 | 3.5 | 7.0 | 0.00 | 0.66 | 0.00 | 80 | 1001.7 |
| 20260508191535 | 47 | 358 | 3.5 | 7.8 | 0.00 | 0.66 | 0.00 | 81 | 1001.6 |
| 20260508190028 | 47 | 347 | 5.2 | 9.6 | 0.00 | 0.66 | 0.00 | 80 | 1001.5 |
| 20260508184528 | 48 | 27 | 5.2 | 8.7 | 0.00 | 0.81 | 0.00 | 78 | 1001.5 |
| 20260508183033 | 48 | 359 | 3.5 | 7.0 | 0.00 | 0.81 | 0.00 | 79 | 1001.5 |
| 20260508181531 | 49 | 46 | 4.3 | 8.7 | 0.00 | 0.81 | 0.00 | 77 | 1001.6 |
| 20260508180028 | 49 | 14 | 3.5 | 7.8 | 0.00 | 0.81 | 0.00 | 78 | 1001.6 |
| 20260508174534 | 48 | 35 | 2.6 | 10.4 | 0.00 | 0.81 | 0.00 | 81 | 1001.6 |
| 20260508173031 | 48 | 72 | 4.3 | 8.7 | 0.00 | 0.81 | 0.00 | 80 | 1001.6 |
| 20260508171531 | 48 | 36 | 2.6 | 7.0 | 0.00 | 0.81 | 0.00 | 82 | 1001.9 |
| 20260508170028 | 46 | 342 | 1.7 | 5.2 | 0.00 | 0.81 | 0.00 | 83 | 1002.0 |
| 20260508164528 | 46 | 2 | 2.6 | 5.2 | 0.00 | 0.81 | 0.00 | 84 | 1001.8 |
| 20260508163035 | 45 | 3 | 1.7 | 5.2 | 0.00 | 0.81 | 0.00 | 85 | 1001.9 |
| 20260508161531 | 44 | 9 | 1.7 | 3.5 | 0.00 | 0.81 | 0.00 | 84 | 1001.8 |
| 20260508160030 | 44 | 0 | 1.7 | 5.2 | 0.00 | 0.81 | 0.00 | 85 | 1001.9 |
| 20260508154530 | 45 | 27 | 3.5 | 6.1 | 0.00 | 0.81 | 0.00 | 84 | 1001.9 |
| 20260508153037 | 44 | 360 | 2.6 | 5.2 | 0.00 | 0.81 | 0.00 | 85 | 1001.8 |
| 20260508151532 | 45 | 358 | 3.5 | 7.0 | 0.00 | 0.81 | 0.00 | 84 | 1001.8 |
| 20260508150049 | 46 | 2 | 2.6 | 5.2 | 0.00 | 0.81 | 0.00 | 85 | 1002.2 |
| 20260508144531 | 46 | 5 | 3.5 | 7.0 | 0.00 | 0.81 | 0.00 | 86 | 1002.1 |
| 20260508143027 | 46 | 360 | 4.3 | 7.8 | 0.00 | 0.81 | 0.00 | 86 | 1002.1 |
| 20260508141530 | 45 | 357 | 3.5 | 7.0 | 0.00 | 0.81 | 0.00 | 86 | 1002.5 |
| 20260508140030 | 46 | 1 | 4.3 | 7.0 | 0.00 | 0.81 | 0.00 | 87 | 1002.5 |
| 20260508134529 | 46 | 1 | 3.5 | 5.2 | 0.00 | 0.81 | 0.00 | 87 | 1002.9 |
| 20260508133032 | 46 | 358 | 2.6 | 7.0 | 0.00 | 0.81 | 0.00 | 89 | 1002.8 |
| 20260508131529 | 45 | 1 | 4.3 | 7.0 | 0.00 | 0.81 | 0.00 | 90 | 1002.6 |
| 20260508130030 | 45 | 360 | 5.2 | 7.8 | 0.00 | 0.81 | 0.00 | 91 | 1002.5 |
| 20260508124528 | 44 | 356 | 2.6 | 7.0 | 0.00 | 0.81 | 0.00 | 91 | 1002.4 |
| 20260508123035 | 44 | 9 | 2.6 | 7.0 | 0.00 | 0.81 | 0.00 | 92 | 1002.5 |
| 20260508121532 | 45 | 357 | 5.2 | 7.8 | 0.00 | 0.81 | 0.00 | 92 | 1002.3 |
| 20260508120028 | 44 | 344 | 3.5 | 7.8 | 0.00 | 0.81 | 0.00 | 93 | 1002.6 |
| 20260508114533 | 43 | 352 | 3.5 | 5.2 | 0.00 | 0.81 | 0.00 | 93 | 1002.7 |
| 20260508113030 | 43 | 354 | 2.6 | 5.2 | 0.00 | 0.81 | 0.00 | 93 | 1002.4 |
| 20260508111529 | 42 | 337 | 1.7 | 4.3 | 0.00 | 0.81 | 0.00 | 93 | 1002.6 |
| 20260508110028 | 40 | 341 | 1.7 | 3.5 | 0.00 | 0.81 | 0.00 | 93 | 1002.5 |
| 20260508104528 | 40 | 341 | 2.6 | 3.5 | 0.00 | 0.81 | 0.00 | 93 | 1002.8 |
| 20260508103028 | 40 | 347 | 1.7 | 2.6 | 0.00 | 0.81 | 0.00 | 93 | 1002.8 |
| 20260508101529 | 40 | 348 | 1.7 | 3.5 | 0.00 | 0.81 | 0.00 | 93 | 1002.7 |
| 20260508100033 | 39 | 0 | 0.0 | 0.0 | 0.00 | 0.81 | 0.00 | 93 | 1002.8 |
| 20260508094528 | 39 | 0 | 0.0 | 0.0 | 0.00 | 0.83 | 0.00 | 93 | 1002.7 |
| 20260508093035 | 38 | 0 | 0.0 | 0.0 | 0.00 | 0.83 | 0.00 | 92 | 1002.4 |
| 20260508091528 | 38 | 0 | 0.0 | 0.0 | 0.00 | 0.83 | 0.00 | 92 | 1002.3 |
| 20260508090034 | 38 | 0 | 0.0 | 0.0 | 0.00 | 0.83 | 0.00 | 92 | 1002.5 |
| 20260508084528 | 38 | 0 | 0.9 | 3.5 | 0.00 | 0.90 | 0.00 | 92 | 1002.5 |
| 20260508083027 | 38 | 350 | 0.9 | 2.6 | 0.00 | 0.90 | 0.00 | 92 | 1002.1 |
| 20260508081530 | 39 | 350 | 0.0 | 1.7 | 0.00 | 0.90 | 0.00 | 92 | 1001.8 |
| 20260508080050 | 39 | 350 | 0.9 | 2.6 | 0.00 | 0.90 | 0.00 | 92 | 1001.9 |
| 20260508074528 | 39 | 350 | 0.9 | 2.6 | 0.00 | 0.90 | 0.00 | 92 | 1001.9 |
| 20260508073030 | 39 | 0 | 0.0 | 2.6 | 0.00 | 0.90 | 0.00 | 92 | 1001.9 |
| 20260508071531 | 39 | 350 | 1.7 | 3.5 | 0.00 | 0.90 | 0.00 | 92 | 1002.1 |
| 20260508070028 | 39 | 350 | 0.0 | 3.5 | 0.00 | 0.90 | 0.00 | 92 | 1001.8 |
| 20260508064541 | 40 | 349 | 2.6 | 4.3 | 0.00 | 0.90 | 0.00 | 92 | 1001.8 |
| 20260508063030 | 40 | 347 | 0.9 | 4.3 | 0.00 | 0.90 | 0.00 | 92 | 1001.9 |
| 20260508061534 | 40 | 352 | 2.6 | 7.0 | 0.00 | 0.90 | 0.00 | 92 | 1002.0 |
| 20260508060028 | 41 | 360 | 2.6 | 7.8 | 0.00 | 0.90 | 0.00 | 92 | 1001.7 |
| 20260508054540 | 42 | 358 | 3.5 | 7.0 | 0.00 | 0.90 | 0.00 | 92 | 1002.0 |
| 20260508053030 | 42 | 348 | 2.6 | 5.2 | 0.00 | 0.90 | 0.00 | 92 | 1001.9 |
| 20260508051532 | 42 | 355 | 1.7 | 3.5 | 0.00 | 0.90 | 0.00 | 92 | 1001.4 |
| 20260508050028 | 43 | 356 | 1.7 | 2.6 | 0.00 | 0.90 | 0.00 | 92 | 1001.4 |
| 20260508044528 | 44 | 356 | 0.9 | 2.6 | 0.00 | 0.90 | 0.00 | 92 | 1001.5 |
| 20260508043030 | 45 | 355 | 1.7 | 4.3 | 0.00 | 0.90 | 0.00 | 92 | 1001.7 |
| 20260508041532 | 47 | 346 | 2.6 | 7.0 | 0.00 | 0.90 | 0.00 | 92 | 1001.8 |
| 20260508040044 | 48 | 249 | 0.0 | 1.7 | 0.00 | 0.90 | 0.00 | 93 | 1001.7 |
| 20260508034538 | 48 | 249 | 0.9 | 3.5 | 0.00 | 0.90 | 0.00 | 93 | 1001.9 |
| 20260508033029 | 48 | 249 | 0.9 | 3.5 | 0.00 | 0.90 | 0.00 | 93 | 1002.0 |
| 20260508031532 | 48 | 249 | 1.7 | 4.3 | 0.00 | 0.90 | 0.00 | 93 | 1002.2 |
| 20260508030030 | 49 | 252 | 1.7 | 6.1 | 0.00 | 0.90 | 0.00 | 92 | 1002.1 |
| 20260508024529 | 49 | 243 | 2.6 | 7.8 | 0.00 | 0.90 | 0.90 | 92 | 1001.9 |
| 20260508023030 | 49 | 268 | 4.3 | 8.7 | 0.00 | 0.90 | 0.90 | 92 | 1001.5 |
| 20260508021532 | 49 | 252 | 4.3 | 10.4 | 0.00 | 0.90 | 0.90 | 92 | 1001.7 |
| 20260508020027 | 49 | 235 | 4.3 | 9.6 | 0.00 | 0.90 | 0.90 | 92 | 1001.7 |
| 20260508014529 | 50 | 254 | 2.6 | 8.7 | 0.00 | 0.90 | 0.90 | 92 | 1001.8 |
| 20260508013030 | 50 | 271 | 2.6 | 7.0 | 0.00 | 0.90 | 0.90 | 92 | 1001.7 |
| 20260508011532 | 50 | 251 | 3.5 | 6.1 | 0.00 | 0.90 | 0.90 | 92 | 1001.5 |
| 20260508010030 | 50 | 220 | 1.7 | 5.2 | 0.00 | 0.90 | 0.90 | 92 | 1001.9 |
| 20260508004531 | 49 | 222 | 1.7 | 5.2 | 0.00 | 0.90 | 0.90 | 91 | 1001.8 |
| 20260508003028 | 49 | 221 | 1.7 | 5.2 | 0.00 | 0.90 | 0.90 | 91 | 1001.8 |
| 20260508001530 | 49 | 190 | 1.7 | 7.8 | 0.00 | 0.90 | 0.90 | 91 | 1001.9 |
| 20260508000029 | 49 | 212 | 1.7 | 8.7 | 0.00 | 0.90 | 0.90 | 91 | 1002.0 |
| 20260507234542 | 50 | 175 | 2.6 | 8.7 | 0.00 | 0.90 | 0.90 | 91 | 1002.1 |
| 20260507233030 | 50 | 189 | 2.6 | 7.0 | 0.00 | 0.90 | 0.90 | 91 | 1001.9 |
| 20260507231528 | 51 | 176 | 3.5 | 7.8 | 0.00 | 0.90 | 0.90 | 91 | 1002.4 |
| 20260507230030 | 51 | 213 | 2.6 | 10.4 | 0.00 | 0.90 | 0.90 | 91 | 1002.2 |
| 20260507224530 | 51 | 171 | 4.3 | 13.0 | 0.00 | 0.90 | 0.90 | 91 | 1002.5 |
| 20260507223030 | 51 | 253 | 5.2 | 12.2 | 0.00 | 0.90 | 0.90 | 91 | 1002.4 |
| 20260507221534 | 51 | 213 | 3.5 | 9.6 | 0.00 | 0.90 | 0.90 | 91 | 1002.6 |
| 20260507220036 | 51 | 196 | 6.1 | 14.8 | 0.00 | 0.90 | 0.90 | 91 | 1002.5 |
| 20260507214528 | 50 | 209 | 7.0 | 13.0 | 0.02 | 0.90 | 0.90 | 91 | 1002.5 |
| 20260507213031 | 49 | 210 | 5.2 | 13.9 | 0.10 | 0.90 | 0.90 | 91 | 1002.1 |
| 20260507211534 | 49 | 173 | 8.7 | 18.2 | 0.18 | 0.90 | 0.90 | 90 | 1001.6 |
| 20260507210033 | 50 | 180 | 6.1 | 16.5 | 0.25 | 0.90 | 0.90 | 90 | 1002.3 |
| 20260507204531 | 51 | 202 | 4.3 | 9.6 | 0.35 | 0.88 | 0.88 | 90 | 1003.1 |
| 20260507203030 | 51 | 193 | 5.2 | 12.2 | 0.43 | 0.80 | 0.80 | 90 | 1003.4 |
| 20260507201528 | 51 | 177 | 2.6 | 8.7 | 0.42 | 0.70 | 0.70 | 90 | 1004.0 |
| 20260507200027 | 51 | 231 | 4.3 | 10.4 | 0.40 | 0.63 | 0.63 | 90 | 1004.7 |
| 20260507194545 | 52 | 239 | 7.0 | 13.0 | 0.32 | 0.51 | 0.51 | 90 | 1004.9 |